| time (UTC) | temp F | wind direction | speed MPH | gust MPH | rain 1hr in | rain 24hr in | rain mn in | humidity % | barometer mb |
| 20260903121531 | 64 | 114 | 0.0 | 0.0 | 0.00 | 0.10 | 0.00 | 100 | 1014.6 |
| 20260903120030 | 64 | 114 | 0.0 | 0.0 | 0.00 | 0.10 | 0.00 | 100 | 1014.6 |
| 20260903114530 | 64 | 114 | 0.0 | 0.0 | 0.00 | 0.10 | 0.00 | 100 | 1014.5 |
| 20260903113030 | 63 | 114 | 0.0 | 0.0 | 0.00 | 0.10 | 0.00 | 100 | 1014.4 |
| 20260903111538 | 63 | 114 | 0.0 | 0.0 | 0.00 | 0.10 | 0.00 | 100 | 1014.6 |
| 20260903110027 | 62 | 114 | 0.0 | 0.0 | 0.00 | 0.10 | 0.00 | 100 | 1014.5 |
| 20260903104527 | 62 | 114 | 0.0 | 0.0 | 0.00 | 0.10 | 0.00 | 100 | 1014.5 |
| 20260903103028 | 62 | 114 | 0.0 | 0.0 | 0.00 | 0.10 | 0.00 | 100 | 1014.3 |
| 20260903101535 | 62 | 114 | 0.0 | 0.0 | 0.00 | 0.10 | 0.00 | 100 | 1014.2 |
| 20260903100021 | 62 | 114 | 0.0 | 0.0 | 0.00 | 0.10 | 0.00 | 100 | 1014.2 |
| 20260903094521 | 62 | 114 | 1.0 | 2.0 | 0.00 | 0.10 | 0.00 | 100 | 1014.0 |
| 20260903093020 | 62 | 114 | 0.0 | 0.0 | 0.00 | 0.10 | 0.00 | 99 | 1014.0 |
| 20260903091518 | 62 | 114 | 0.0 | 2.0 | 0.00 | 0.10 | 0.00 | 99 | 1013.9 |
| 20260903090018 | 61 | 114 | 1.0 | 2.0 | 0.00 | 0.10 | 0.00 | 99 | 1013.9 |
| 20260903084517 | 61 | 114 | 1.0 | 2.0 | 0.00 | 0.10 | 0.00 | 99 | 1013.7 |
| 20260903083030 | 61 | 114 | 1.0 | 2.0 | 0.00 | 0.10 | 0.00 | 99 | 1013.7 |
| 20260903081527 | 61 | 114 | 2.0 | 3.0 | 0.00 | 0.10 | 0.00 | 99 | 1013.8 |
| 20260903080013 | 61 | 114 | 1.0 | 2.0 | 0.00 | 0.10 | 0.00 | 99 | 1013.7 |
| 20260903074512 | 61 | 114 | 0.0 | 0.0 | 0.00 | 0.10 | 0.00 | 99 | 1013.5 |
| 20260903073014 | 62 | 114 | 0.0 | 2.0 | 0.00 | 0.10 | 0.00 | 98 | 1013.5 |
| 20260903071510 | 62 | 114 | 1.0 | 2.0 | 0.00 | 0.10 | 0.00 | 98 | 1013.5 |
| 20260903070009 | 62 | 114 | 1.0 | 3.0 | 0.00 | 0.10 | 0.00 | 99 | 1013.4 |
| 20260903064509 | 62 | 114 | 1.0 | 3.0 | 0.00 | 0.10 | 0.00 | 99 | 1013.5 |
| 20260903063007 | 62 | 114 | 1.0 | 2.0 | 0.00 | 0.10 | 0.00 | 99 | 1013.4 |
| 20260903061506 | 62 | 114 | 1.0 | 3.0 | 0.00 | 0.10 | 0.00 | 99 | 1013.4 |
| 20260903060006 | 62 | 114 | 1.0 | 2.0 | 0.00 | 0.10 | 0.00 | 99 | 1013.4 |
| 20260903054504 | 62 | 114 | 1.0 | 3.0 | 0.00 | 0.10 | 0.00 | 99 | 1013.6 |
| 20260903053003 | 62 | 114 | 1.0 | 3.0 | 0.00 | 0.10 | 0.00 | 99 | 1013.6 |
| 20260903051501 | 63 | 114 | 1.0 | 3.0 | 0.00 | 0.10 | 0.00 | 99 | 1013.6 |
| 20260903050127 | 63 | 114 | 0.0 | 3.0 | 0.00 | 0.10 | 0.00 | 99 | 1013.5 |
| 20260903044558 | 63 | 114 | 0.0 | 2.0 | 0.00 | 0.10 | 0.00 | 99 | 1013.4 |
| 20260903043055 | 64 | 114 | 0.0 | 2.0 | 0.00 | 0.10 | 0.00 | 99 | 1013.5 |
| 20260903041555 | 64 | 114 | 1.0 | 2.0 | 0.00 | 0.10 | 0.00 | 99 | 1013.3 |
| 20260903040058 | 65 | 114 | 1.0 | 3.0 | 0.00 | 0.10 | 0.10 | 99 | 1013.2 |
| 20260903034551 | 65 | 114 | 1.0 | 3.0 | 0.00 | 0.10 | 0.10 | 99 | 1013.2 |
| 20260903033049 | 65 | 115 | 1.0 | 4.0 | 0.00 | 0.10 | 0.10 | 99 | 1013.0 |
| 20260903031548 | 65 | 115 | 1.0 | 3.0 | 0.00 | 0.10 | 0.10 | 99 | 1012.9 |
| 20260903030049 | 65 | 115 | 1.0 | 3.0 | 0.00 | 0.10 | 0.10 | 99 | 1012.9 |
| 20260903024547 | 65 | 115 | 0.0 | 2.0 | 0.00 | 0.10 | 0.10 | 99 | 1013.0 |
| 20260903023047 | 66 | 115 | 1.0 | 3.0 | 0.00 | 0.10 | 0.10 | 99 | 1012.9 |
| 20260903021548 | 66 | 115 | 1.0 | 2.0 | 0.00 | 0.10 | 0.10 | 98 | 1012.9 |
| 20260903020050 | 66 | 115 | 1.0 | 2.0 | 0.00 | 0.10 | 0.10 | 98 | 1012.8 |
| 20260903014551 | 66 | 115 | 1.0 | 2.0 | 0.00 | 0.10 | 0.10 | 98 | 1012.6 |
| 20260903013045 | 67 | 115 | 1.0 | 2.0 | 0.00 | 0.10 | 0.10 | 97 | 1012.5 |
| 20260903011558 | 68 | 115 | 0.0 | 2.0 | 0.00 | 0.10 | 0.10 | 97 | 1012.6 |
| 20260903010044 | 68 | 115 | 1.0 | 2.0 | 0.00 | 0.10 | 0.10 | 96 | 1012.5 |
| 20260903004544 | 68 | 115 | 1.0 | 2.0 | 0.00 | 0.10 | 0.10 | 96 | 1012.2 |
| 20260903003044 | 69 | 115 | 1.0 | 2.0 | 0.00 | 0.10 | 0.10 | 94 | 1012.1 |
| 20260903001543 | 70 | 115 | 0.0 | 1.0 | 0.00 | 0.10 | 0.10 | 92 | 1012.0 |
| 20260903000043 | 71 | 115 | 0.0 | 2.0 | 0.00 | 0.10 | 0.10 | 91 | 1012.2 |
| 20260902234545 | 72 | 115 | 1.0 | 4.0 | 0.00 | 0.10 | 0.10 | 90 | 1012.2 |
| 20260902233050 | 73 | 115 | 0.0 | 4.0 | 0.00 | 0.10 | 0.10 | 88 | 1012.2 |
| 20260902231552 | 76 | 109 | 1.0 | 2.0 | 0.00 | 0.10 | 0.10 | 80 | 1012.4 |
| 20260902230040 | 76 | 109 | 1.0 | 3.0 | 0.00 | 0.10 | 0.10 | 76 | 1012.4 |
| 20260902224549 | 75 | 109 | 0.0 | 1.0 | 0.00 | 0.10 | 0.10 | 82 | 1012.5 |
| 20260902223039 | 75 | 109 | 0.0 | 2.0 | 0.00 | 0.10 | 0.10 | 85 | 1012.4 |
| 20260902221547 | 73 | 109 | 0.0 | 4.0 | 0.00 | 0.10 | 0.10 | 86 | 1012.5 |
| 20260902220039 | 73 | 109 | 1.0 | 6.0 | 0.00 | 0.10 | 0.10 | 86 | 1012.4 |
| 20260902214539 | 74 | 97 | 3.0 | 6.0 | 0.00 | 0.10 | 0.10 | 85 | 1012.3 |
| 20260902213041 | 73 | 99 | 1.0 | 8.0 | 0.00 | 0.10 | 0.10 | 86 | 1012.4 |
| 20260902211546 | 74 | 121 | 2.0 | 8.0 | 0.00 | 0.10 | 0.10 | 84 | 1012.3 |
| 20260902210036 | 74 | 98 | 2.0 | 7.0 | 0.00 | 0.10 | 0.10 | 84 | 1012.6 |
| 20260902204536 | 73 | 86 | 5.0 | 8.0 | 0.00 | 0.10 | 0.10 | 81 | 1012.5 |
| 20260902203035 | 74 | 91 | 2.0 | 7.0 | 0.00 | 0.10 | 0.10 | 83 | 1012.4 |
| 20260902201538 | 73 | 109 | 4.0 | 8.0 | 0.00 | 0.10 | 0.10 | 83 | 1012.6 |
| 20260902200036 | 73 | 112 | 3.0 | 8.0 | 0.00 | 0.10 | 0.10 | 86 | 1012.8 |
| 20260902194537 | 73 | 126 | 4.0 | 11.0 | 0.00 | 0.10 | 0.10 | 87 | 1012.8 |
| 20260902193033 | 74 | 142 | 2.0 | 8.0 | 0.00 | 0.10 | 0.10 | 85 | 1012.7 |
| 20260902191536 | 75 | 130 | 4.0 | 7.0 | 0.00 | 0.10 | 0.10 | 80 | 1012.9 |
| 20260902190032 | 75 | 105 | 1.0 | 7.0 | 0.00 | 0.10 | 0.10 | 81 | 1013.1 |
| 20260902184531 | 76 | 144 | 2.0 | 7.0 | 0.00 | 0.10 | 0.10 | 79 | 1013.1 |
| 20260902183031 | 75 | 135 | 2.0 | 7.0 | 0.00 | 0.10 | 0.10 | 79 | 1013.1 |
| 20260902181530 | 74 | 108 | 3.0 | 8.0 | 0.00 | 0.10 | 0.10 | 80 | 1013.1 |
| 20260902180029 | 74 | 119 | 3.0 | 6.0 | 0.00 | 0.10 | 0.10 | 84 | 1013.1 |
| 20260902174530 | 74 | 113 | 2.0 | 4.0 | 0.00 | 0.10 | 0.10 | 82 | 1013.3 |
| 20260902173029 | 74 | 130 | 2.0 | 5.0 | 0.00 | 0.10 | 0.10 | 80 | 1013.3 |
| 20260902171528 | 74 | 145 | 3.0 | 5.0 | 0.00 | 0.10 | 0.10 | 81 | 1013.4 |
| 20260902170027 | 76 | 194 | 1.0 | 2.0 | 0.00 | 0.10 | 0.10 | 79 | 1013.3 |
| 20260902164529 | 74 | 195 | 1.0 | 2.0 | 0.00 | 0.10 | 0.10 | 84 | 1012.9 |
| 20260902163025 | 72 | 195 | 0.0 | 4.0 | 0.00 | 0.10 | 0.10 | 85 | 1012.9 |
| 20260902161527 | 71 | 246 | 0.0 | 6.0 | 0.00 | 0.10 | 0.10 | 88 | 1012.8 |
| 20260902160023 | 70 | 279 | 1.0 | 4.0 | 0.00 | 0.10 | 0.10 | 91 | 1013.3 |
| 20260902154529 | 70 | 286 | 0.0 | 7.0 | 0.00 | 0.10 | 0.10 | 92 | 1013.5 |
| 20260902153023 | 70 | 229 | 0.0 | 3.0 | 0.00 | 0.10 | 0.10 | 92 | 1013.4 |
| 20260902151521 | 69 | 355 | 1.0 | 4.0 | 0.00 | 0.10 | 0.10 | 93 | 1013.2 |
| 20260902150021 | 68 | 324 | 2.0 | 10.0 | 0.00 | 0.10 | 0.10 | 95 | 1013.5 |
| 20260902144530 | 68 | 5 | 3.0 | 8.0 | 0.00 | 0.10 | 0.10 | 96 | 1013.6 |
| 20260902143020 | 67 | 15 | 3.0 | 9.0 | 0.00 | 0.10 | 0.10 | 97 | 1013.8 |
| 20260902141524 | 67 | 271 | 1.0 | 3.0 | 0.01 | 0.10 | 0.10 | 98 | 1012.7 |
| 20260902140020 | 66 | 255 | 1.0 | 3.0 | 0.01 | 0.10 | 0.10 | 99 | 1012.2 |
| 20260902134532 | 65 | 249 | 2.0 | 4.0 | 0.02 | 0.10 | 0.10 | 98 | 1012.6 |
| 20260902133022 | 65 | 249 | 2.0 | 5.0 | 0.06 | 0.10 | 0.10 | 98 | 1012.4 |
| 20260902131517 | 65 | 312 | 0.0 | 3.0 | 0.08 | 0.09 | 0.09 | 96 | 1012.7 |
| 20260902130015 | 65 | 310 | 3.0 | 8.0 | 0.09 | 0.09 | 0.09 | 94 | 1013.5 |
| 20260902124512 | 67 | 95 | 3.0 | 7.0 | 0.08 | 0.08 | 0.08 | 94 | 1011.4 |
| 20260902123010 | 69 | 220 | 1.0 | 3.0 | 0.04 | 0.04 | 0.04 | 93 | 1015.0 |